Miscellaneous Local Product
Issued by NWS North Platte, NE

Home | Current Version | Previous Version | Graphics & Text | Print | Product List | Glossary On
Versions: 1 2 3 4 5 6 7 8 9 10 11 12 13 14 15 16 17 18 19 20 21 22 23 24 25 26 27 28 29 30 31 32 33 34 35 36 37 38 39 40 41 42 43 44 45 46 47 48 49 50
000
AXUS43 KLBF 201210
MISLBF


WESTERN AND NORTH CENTRAL NEBRASKA HOURLY WEATHER ROUNDUP
NATIONAL WEATHER SERVICE NORTH PLATTE NE
600 AM CST SAT DEC 20 2014

***STATIONS NOT REPORTING VARIABLES SUCH AS SKY/WEATHER OR
PRESSURE ARE PROVIDED BY THE NEBRASKA DEPARTMENT OF
ROADS...RAWS...AND APRS NETWORKS...AND ARE NOT UNDER
NATIONAL WEATHER SERVICE QUALITY CONTROL***

...OBSERVATIONS IN AND NEAR THE EASTERN PANHANDLE OF NEBRASKA...

CITY           SKY/WX    TMP DP  RH WIND       PRES   REMARKS
PINE RIDGE     CLEAR     21  15  78 W7        29.92S WCI  12
CHADRON        CLEAR     18  14  84 SW5       29.95R WCI  11
ALLIANCE       PTCLDY     7   4  87 SW6       29.95S WCI  -3
SIDNEY         PTCLDY    21  13  71 W13       29.98S WCI   9
WHITECLAY        N/A     16  11  82 SE5         N/A  WCI   9
CRESCENT LAKE    N/A     22  19  87 SW3         N/A
LISCO            N/A     14   9  81 CALM        N/A
BIG SPRINGS      N/A     19  16  88 W10         N/A  WCI   7
$$

...OBSERVATIONS IN NORTH CENTRAL NEBRASKA...

CITY           SKY/WX    TMP DP  RH WIND       PRES   REMARKS
VALENTINE      CLEAR     15  12  88 SW6       29.97S WCI   6
THEDFORD       PTCLDY    19  16  90 CALM      29.98S
AINSWORTH      PTCLDY    19  14  82 SW6       29.97S WCI  11
O`NEILL        FOG      N/A N/A N/A CALM      30.01R VSB 3/4
BROKEN BOW     CLEAR     19  16  88 W3        29.99S
BROWNLEE         N/A     21  14  73 S5          N/A  WCI  15
SPRINGVIEW       N/A      9   7  89 CALM        N/A
BREWSTER         N/A     18  16  93 CALM        N/A
ROSE             N/A     23  23 100 MISG        N/A
SARGENT          N/A     14  12  93 CALM        N/A
COMSTOCK         N/A     25  24  94 CALM        N/A
CHAMBERS         N/A     15  13  92 CALM        N/A
EWING            N/A     26  25  96 CALM        N/A
$$

...OBSERVATIONS IN SOUTHWEST NEBRASKA AND FAR NORTHEAST COLORADO...

CITY           SKY/WX    TMP DP  RH WIND       PRES   REMARKS
WRAY           FAIR      22  20  91 SW7       30.00F WCI  14
HOLYOKE        FAIR      21  18  86 W7        29.99S WCI  13
IMPERIAL       CLEAR     19  15  84 SW5       30.01S WCI  12
OGALLALA       PTCLDY    15  13  93 W6        30.00S WCI   6
NORTH PLATTE   CLEAR     15  13  91 NW3       30.01S
MCCOOK         CLEAR     23  20  88 W6        30.03S WCI  16
LEXINGTON      CLEAR     22  20  91 W5        30.03R FOG     WCI  16
PAXTON           N/A     17  14  89 W3          N/A
BRADY            N/A     20  17  88 CALM        N/A
GOTHENBURG       N/A     22  19  86 CALM        N/A
CALLAWAY         N/A     20  18  92 CALM        N/A
$$

...NORTH PLATTE AREA...

CITY           SKY/WX    TMP DP  RH WIND       PRES   REMARKS
AIRPORT        CLEAR     15  13  91 NW3       30.01S
DOWNTOWN         N/A     19  17  93 CALM        N/A
$$

...SOME WEATHER OBSERVATIONS FROM AROUND THE REGION...

CITY           SKY/WX    TMP DP  RH WIND       PRES   REMARKS
DENVER         MOCLDY    31  16  54 S8        29.97F WCI  23
LARAMIE        CLOUDY    29  18  63 SW21      29.98F WCI  16
CHEYENNE       PTCLDY    35  17  47 W22G33    29.94S WCI  23
SCOTTSBLUFF    PTCLDY    11   8  88 CALM      29.96F
RAPID CITY     MOCLDY    33  22  63 NW6       29.88S WCI  28
PIERRE         HAZE      20  15  81 E6        29.95S VSB<1/4 WCI  12
WINNER         FAIR      23  15  71 S3        29.96S
SIOUX FALLS    CLOUDY    31  29  92 S8        30.05S FOG     WCI  23
OMAHA          FRZ DRZL  32  31  96 S12       30.11F FOG     WCI  23
GRAND ISLAND   FOG       29  28  96 CALM      30.05R VSB 1/4
KANSAS CITY    CLOUDY    33  31  92 S8        30.17F WCI  26
WICHITA        CLEAR     33  31  92 S9        30.15R FOG     WCI  25
HAYS           CLEAR     27  18  69 SW6       30.07R WCI  20
LIBERAL        CLEAR     28  25  86 S10       30.11R WCI  19
GOODLAND       CLEAR     29  26  89 W8        30.02S WCI  21
$$



USA.gov is the U.S. government's official web portal to all federal, state and local government web resources and services.